Regional Weather Roundup
Issued by NWS

Home | Current Version | Previous Version | Text Only | Print | Product List | Glossary Off
Versions: 1 2 3 4 5 6 7 8 9 10 11 12 13 14 15 16 17 18 19 20 21 22 23 24 25 26 27 28 29 30 31 32 33 34 35 36 37 38 39 40 41 42 43 44 45 46 47 48 49 50

000
ASUS43 KLMK 030602
RWRKY
KENTUCKY REGIONAL WEATHER ROUNDUP
NATIONAL WEATHER SERVICE LOUISVILLE KY
200 AM EDT TUE MAY 03 2016

NOTE "FAIR" INDICATES FEW OR NO CLOUDS BELOW 12,000 FEET
WITH NO SIGNIFICANT WEATHER AND/OR OBSTRUCTIONS TO VISIBILITY.

KYZ001>023-026-027-061>063-070>075-030700-
WESTERN AND SOUTH CENTRAL KENTUCKY

CITY           SKY/WX    TMP DP  RH WIND       PRES   REMARKS
PADUCAH        CLOUDY    56  50  80 NW5       29.99F
HENDERSON      CLOUDY    55  48  76 NW6       29.97F
OWENSBORO      MOCLDY    56  51  83 NW8       29.97F
HOPKINSVILLE   NOT AVBL
BOWLING GREEN  CLOUDY    58  51  78 NW6       29.96F
GLASGOW        NOT AVBL
$$

KYZ024-025-028>034-038-045-046-053-030700-
NORTH CENTRAL KENTUCKY

CITY           SKY/WX    TMP DP  RH WIND       PRES   REMARKS
LOUISVILLE/SDF CLOUDY    57  48  72 NW8       29.94S
LOUISVILLE/LOU CLOUDY    57  48  72 NW8       29.94F
FORT KNOX      NOT AVBL
$$

KYZ035>037-039>044-047>052-055>060-089>105-030700-
NORTHEAST KENTUCKY

CITY           SKY/WX    TMP DP  RH WIND       PRES   REMARKS
LEXINGTON      CLOUDY    56  50  80 NW6       29.91F
COVINGTON      CLOUDY    55  52  89 NW3       29.92S
FRANKFORT      MOCLDY    56  49  77 NW5       29.90
$$

KYZ054-064>069-076>088-106>120-030700-
SOUTHEAST KENTUCKY

CITY           SKY/WX    TMP DP  RH WIND       PRES   REMARKS
JACKSON        LGT RAIN  58  57  97 CALM      29.90F VSB 1/2
LONDON         CLOUDY    58  57  97 N5        29.91F
SOMERSET       NOT AVBL
MIDDLESBORO    LGT RAIN  59  59 100 CALM      29.92F
MONTICELLO     CLOUDY    59  57  93 W5        29.94F
$$





USA.gov is the U.S. government's official web portal to all federal, state and local government web resources and services.